| time (UTC) | temp F | wind direction | speed knots | gust knots | rain 1hr in | rain 24hr in | rain mn in | humidity % | barometer mb |
| 20260509110037 | 43 | 290 | 0.0 | 0.0 | 0.01 | 0.01 | 0.01 | 15 | 1014.5 |
| 20260509104037 | 42 | 290 | 0.0 | 0.0 | 0.01 | 0.01 | 0.01 | 20 | 1014.8 |
| 20260509101929 | 42 | 290 | 0.0 | 0.0 | 0.01 | 0.01 | 0.01 | 25 | 1014.6 |
| 20260509094037 | 42 | 290 | 0.0 | 0.0 | 0.00 | 0.00 | 0.00 | 37 | 1014.2 |
| 20260509092037 | 43 | 290 | 0.0 | 0.0 | 0.00 | 0.00 | 0.00 | 39 | 1014.3 |
| 20260509091929 | 43 | 290 | 0.0 | 0.0 | 0.00 | 0.00 | 0.00 | 39 | 1014.2 |
| 20260509090037 | 42 | 290 | 0.0 | 0.0 | 0.00 | 0.00 | 0.00 | 39 | 1013.6 |
| 20260509084037 | 42 | 290 | 0.0 | 0.0 | 0.00 | 0.00 | 0.00 | 39 | 1013.6 |
| 20260509082036 | 42 | 290 | 0.0 | 0.0 | 0.00 | 0.00 | 0.00 | 39 | 1013.7 |
| 20260509081929 | 42 | 290 | 0.0 | 0.0 | 0.00 | 0.00 | 0.00 | 40 | 1013.7 |
| 20260509080037 | 42 | 290 | 0.0 | 0.0 | 0.00 | 0.00 | 0.00 | 39 | 1013.7 |
| 20260509074037 | 42 | 290 | 0.0 | 0.0 | 0.00 | 0.00 | 0.00 | 39 | 1013.8 |
| 20260509072037 | 42 | 290 | 0.0 | 0.0 | 0.00 | 0.00 | 0.00 | 39 | 1013.9 |
| 20260509071929 | 42 | 290 | 0.0 | 0.0 | 0.00 | 0.00 | 0.00 | 39 | 1013.9 |
| 20260509070036 | 41 | 290 | 0.0 | 0.0 | 0.00 | 0.00 | 0.00 | 38 | 1014.2 |
| 20260509064037 | 42 | 290 | 0.0 | 0.0 | 0.00 | 0.00 | 0.00 | 38 | 1014.1 |
| 20260509062037 | 42 | 290 | 0.0 | 0.0 | 0.00 | 0.00 | 0.00 | 35 | 1014.0 |
| 20260509061929 | 42 | 290 | 0.0 | 0.0 | 0.00 | 0.00 | 0.00 | 35 | 1014.0 |
| 20260509060037 | 42 | 290 | 0.0 | 0.0 | 0.00 | 0.00 | 0.00 | 38 | 1014.3 |
| 20260509054037 | 42 | 290 | 0.0 | 0.0 | 0.00 | 0.00 | 0.00 | 39 | 1014.4 |
| 20260509052037 | 42 | 290 | 0.0 | 0.0 | 0.00 | 0.00 | 0.00 | 40 | 1014.3 |
| 20260509051929 | 42 | 290 | 0.0 | 0.0 | 0.00 | 0.00 | 0.00 | 39 | 1014.3 |
| 20260509050037 | 41 | 290 | 0.0 | 0.0 | 0.00 | 0.00 | 0.00 | 37 | 1014.2 |
| 20260509044037 | 41 | 290 | 0.0 | 0.0 | 0.00 | 0.00 | 0.00 | 39 | 1014.1 |
| 20260509042037 | 41 | 290 | 0.0 | 0.0 | 0.00 | 0.00 | 0.00 | 39 | 1014.1 |
| 20260509041929 | 41 | 290 | 0.0 | 0.0 | 0.00 | 0.00 | 0.00 | 39 | 1014.1 |
| 20260509040036 | 41 | 290 | 0.0 | 0.0 | 0.00 | 0.00 | 0.00 | 43 | 1014.0 |
| 20260509034037 | 41 | 290 | 0.0 | 0.0 | 0.00 | 0.00 | 0.00 | 48 | 1013.7 |
| 20260509032036 | 42 | 290 | 0.0 | 0.0 | 0.00 | 0.00 | 0.00 | 52 | 1013.7 |
| 20260509031929 | 42 | 290 | 0.0 | 0.0 | 0.00 | 0.00 | 0.00 | 52 | 1013.5 |
| 20260509030036 | 43 | 290 | 0.0 | 0.0 | 0.00 | 0.00 | 0.00 | 58 | 1013.4 |
| 20260509024036 | 43 | 290 | 0.0 | 0.0 | 0.00 | 0.00 | 0.00 | 63 | 1013.4 |
| 20260509022036 | 44 | 290 | 0.0 | 0.0 | 0.00 | 0.00 | 0.00 | 66 | 1013.4 |
| 20260509021928 | 44 | 290 | 0.0 | 0.0 | 0.00 | 0.00 | 0.00 | 66 | 1013.4 |
| 20260509020036 | 45 | 290 | 0.0 | 0.0 | 0.00 | 0.00 | 0.00 | 68 | 1013.2 |
| 20260509014037 | 46 | 290 | 0.0 | 0.0 | 0.00 | 0.00 | 0.00 | 66 | 1012.9 |
| 20260509012036 | 48 | 290 | 0.0 | 0.0 | 0.00 | 0.00 | 0.00 | 62 | 1012.4 |
| 20260509011929 | 48 | 290 | 0.0 | 0.0 | 0.00 | 0.00 | 0.00 | 62 | 1012.4 |
| 20260509010036 | 50 | 290 | 0.0 | 0.0 | 0.00 | 0.00 | 0.00 | 58 | 1012.1 |
| 20260509004037 | 51 | 290 | 0.0 | 0.0 | 0.00 | 0.00 | 0.00 | 55 | 1011.9 |
| 20260509002037 | 53 | 290 | 0.0 | 0.0 | 0.00 | 0.00 | 0.00 | 51 | 1011.6 |
| 20260509001929 | 53 | 290 | 0.0 | 0.0 | 0.00 | 0.00 | 0.00 | 50 | 1011.5 |
| 20260509000036 | 54 | 290 | 0.0 | 7.0 | 0.00 | 0.00 | 0.00 | 49 | 1011.4 |
| 20260508234037 | 55 | 290 | 0.0 | 7.0 | 0.00 | 0.00 | 0.00 | 48 | 1010.9 |
| 20260508232037 | 56 | 290 | 0.0 | 7.0 | 0.00 | 0.00 | 0.00 | 47 | 1010.6 |
| 20260508231929 | 56 | 290 | 0.0 | 7.0 | 0.00 | 0.00 | 0.00 | 46 | 1010.7 |
| 20260508230037 | 56 | 286 | 0.0 | 7.8 | 0.00 | 0.00 | 0.00 | 48 | 1010.5 |
| 20260508224036 | 57 | 284 | 0.0 | 7.8 | 0.00 | 0.00 | 0.00 | 47 | 1010.4 |
| 20260508222036 | 57 | 290 | 0.0 | 7.8 | 0.00 | 0.00 | 0.00 | 48 | 1010.1 |
| 20260508221928 | 57 | 290 | 0.0 | 7.8 | 0.00 | 0.00 | 0.00 | 47 | 1010.2 |
| 20260508220038 | 57 | 307 | 0.0 | 7.0 | 0.00 | 0.00 | 0.00 | 49 | 1009.9 |
| 20260508214036 | 58 | 319 | 0.0 | 7.0 | 0.00 | 0.00 | 0.00 | 48 | 1009.9 |
| 20260508212037 | 58 | 338 | 0.0 | 7.0 | 0.00 | 0.00 | 0.00 | 50 | 1010.0 |
| 20260508211929 | 58 | 339 | 0.0 | 7.0 | 0.00 | 0.00 | 0.00 | 50 | 1009.9 |
| 20260508210037 | 59 | 311 | 4.3 | 13.0 | 0.00 | 0.00 | 0.00 | 47 | 1009.8 |
| 20260508204038 | 59 | 296 | 0.0 | 13.0 | 0.00 | 0.00 | 0.00 | 48 | 1009.8 |
| 20260508202036 | 59 | 278 | 5.2 | 13.0 | 0.00 | 0.00 | 0.00 | 48 | 1009.6 |
| 20260508201928 | 59 | 17 | 0.0 | 13.0 | 0.00 | 0.00 | 0.00 | 48 | 1009.7 |
| 20260508200037 | 59 | 313 | 0.0 | 7.8 | 0.00 | 0.00 | 0.00 | 48 | 1009.8 |
| 20260508192036 | 57 | 267 | 0.0 | 7.8 | 0.00 | 0.00 | 0.00 | 51 | 1009.6 |
| 20260508191928 | 57 | 267 | 0.0 | 7.8 | 0.00 | 0.00 | 0.00 | 52 | 1009.6 |
| 20260508190036 | 57 | 295 | 0.0 | 9.6 | 0.00 | 0.00 | 0.00 | 50 | 1009.7 |
| 20260508184036 | 57 | 285 | 4.3 | 9.6 | 0.00 | 0.00 | 0.00 | 50 | 1009.8 |
| 20260508182038 | 58 | 259 | 0.0 | 9.6 | 0.00 | 0.00 | 0.00 | 47 | 1009.4 |
| 20260508181928 | 58 | 279 | 0.0 | 9.6 | 0.00 | 0.00 | 0.00 | 44 | 1009.4 |
| 20260508180036 | 59 | 314 | 3.5 | 12.2 | 0.00 | 0.00 | 0.00 | 40 | 1008.8 |
| 20260508174036 | 61 | 298 | 0.0 | 12.2 | 0.00 | 0.00 | 0.00 | 39 | 1008.9 |
| 20260508172038 | 61 | 5 | 0.0 | 12.2 | 0.00 | 0.00 | 0.00 | 41 | 1009.0 |
| 20260508171928 | 61 | 5 | 0.0 | 12.2 | 0.00 | 0.00 | 0.00 | 40 | 1009.1 |
| 20260508164038 | 61 | 300 | 0.0 | 11.3 | 0.00 | 0.00 | 0.00 | 39 | 1009.4 |
| 20260508162038 | 61 | 254 | 0.0 | 11.3 | 0.00 | 0.00 | 0.00 | 42 | 1009.7 |
| 20260508161928 | 61 | 254 | 0.0 | 11.3 | 0.00 | 0.00 | 0.00 | 42 | 1009.7 |
| 20260508160038 | 61 | 238 | 0.0 | 10.4 | 0.00 | 0.00 | 0.00 | 43 | 1009.8 |
| 20260508154038 | 61 | 229 | 0.0 | 10.4 | 0.00 | 0.00 | 0.00 | 42 | 1009.9 |
| 20260508152037 | 60 | 299 | 3.5 | 10.4 | 0.00 | 0.00 | 0.00 | 43 | 1010.0 |
| 20260508151928 | 60 | 213 | 0.0 | 10.4 | 0.00 | 0.00 | 0.00 | 42 | 1010.1 |
| 20260508150036 | 59 | 303 | 0.0 | 7.0 | 0.00 | 0.00 | 0.00 | 42 | 1010.1 |
| 20260508144036 | 59 | 197 | 0.9 | 7.0 | 0.00 | 0.00 | 0.00 | 42 | 1010.2 |
| 20260508142036 | 58 | 310 | 0.9 | 7.0 | 0.00 | 0.00 | 0.00 | 45 | 1010.2 |
| 20260508141928 | 58 | 309 | 4.3 | 7.0 | 0.00 | 0.00 | 0.00 | 46 | 1010.3 |
| 20260508140038 | 56 | 302 | 0.0 | 6.1 | 0.00 | 0.00 | 0.00 | 47 | 1010.5 |
| 20260508134038 | 56 | 289 | 0.0 | 6.1 | 0.00 | 0.00 | 0.00 | 48 | 1010.8 |
| 20260508132036 | 56 | 325 | 0.0 | 6.1 | 0.00 | 0.00 | 0.00 | 47 | 1010.7 |
| 20260508131928 | 55 | 326 | 0.0 | 6.1 | 0.00 | 0.00 | 0.00 | 48 | 1010.8 |
| 20260508130036 | 54 | 25 | 0.0 | 0.0 | 0.00 | 0.00 | 0.00 | 51 | 1010.8 |
| 20260508124036 | 52 | 304 | 0.0 | 0.0 | 0.00 | 0.00 | 0.00 | 54 | 1010.8 |
| 20260508122038 | 49 | 323 | 0.0 | 0.0 | 0.00 | 0.00 | 0.00 | 58 | 1010.8 |
| 20260508121928 | 49 | 323 | 0.0 | 0.0 | 0.00 | 0.00 | 0.00 | 58 | 1010.8 |
| 20260508120036 | 45 | 311 | 0.0 | 0.0 | 0.00 | 0.00 | 0.00 | 67 | 1010.8 |
| 20260508114036 | 44 | 311 | 0.0 | 0.0 | 0.00 | 0.00 | 0.00 | 56 | 1010.9 |
| 20260508112036 | 42 | 311 | 0.0 | 0.0 | 0.00 | 0.00 | 0.00 | 43 | 1010.8 |
| 20260508111928 | 42 | 311 | 0.0 | 0.0 | 0.00 | 0.00 | 0.00 | 43 | 1010.8 |